| time (UTC) | temp F | wind direction | speed MPH | gust MPH | rain 1hr in | rain 24hr in | rain mn in | humidity % | barometer mb |
| 20260831141513 | 68 | 90 | 12.0 | 23.0 | 0.00 | 0.06 | 0.02 | 67 | 1015.2 |
| 20260831140010 | 70 | 100 | 21.0 | 33.0 | 0.00 | 0.06 | 0.02 | 64 | 1015.2 |
| 20260831134506 | 69 | 117 | 15.0 | 32.0 | 0.00 | 0.06 | 0.02 | 66 | 1015.1 |
| 20260831133003 | 69 | 85 | 20.0 | 29.0 | 0.00 | 0.06 | 0.02 | 70 | 1014.8 |
| 20260831131602 | 68 | 73 | 18.0 | 30.0 | 0.00 | 0.06 | 0.02 | 74 | 1014.8 |
| 20260831130056 | 66 | 90 | 19.0 | 29.0 | 0.00 | 0.06 | 0.02 | 76 | 1014.5 |
| 20260831124556 | 64 | 69 | 15.0 | 25.0 | 0.00 | 0.06 | 0.02 | 85 | 1014.8 |
| 20260831123055 | 62 | 102 | 11.0 | 20.0 | 0.00 | 0.06 | 0.02 | 88 | 1015.1 |
| 20260831121554 | 64 | 115 | 15.0 | 28.0 | 0.00 | 0.06 | 0.02 | 80 | 1015.0 |
| 20260831120052 | 65 | 52 | 16.0 | 25.0 | 0.00 | 0.06 | 0.02 | 78 | 1014.7 |
| 20260831114552 | 66 | 56 | 19.0 | 25.0 | 0.00 | 0.06 | 0.02 | 76 | 1014.7 |
| 20260831113057 | 64 | 35 | 15.0 | 32.0 | 0.00 | 0.06 | 0.02 | 81 | 1014.8 |
| 20260831111547 | 63 | 81 | 16.0 | 24.0 | 0.00 | 0.06 | 0.02 | 82 | 1014.9 |
| 20260831110047 | 63 | 43 | 12.0 | 23.0 | 0.00 | 0.06 | 0.02 | 84 | 1014.9 |
| 20260831104546 | 63 | 57 | 16.0 | 22.0 | 0.00 | 0.06 | 0.02 | 83 | 1014.8 |
| 20260831103057 | 64 | 67 | 13.0 | 25.0 | 0.00 | 0.06 | 0.02 | 82 | 1014.5 |
| 20260831101546 | 64 | 81 | 15.0 | 30.0 | 0.00 | 0.06 | 0.02 | 82 | 1014.6 |
| 20260831100041 | 64 | 54 | 16.0 | 26.0 | 0.00 | 0.06 | 0.02 | 84 | 1014.6 |
| 20260831094538 | 62 | 90 | 18.0 | 30.0 | 0.00 | 0.06 | 0.02 | 85 | 1014.7 |
| 20260831093036 | 62 | 77 | 11.0 | 23.0 | 0.00 | 0.06 | 0.02 | 88 | 1014.7 |
| 20260831091536 | 62 | 46 | 14.0 | 24.0 | 0.00 | 0.06 | 0.02 | 86 | 1014.7 |
| 20260831090033 | 62 | 94 | 13.0 | 25.0 | 0.00 | 0.06 | 0.02 | 86 | 1014.7 |
| 20260831084532 | 61 | 51 | 12.0 | 23.0 | 0.00 | 0.06 | 0.02 | 87 | 1014.6 |
| 20260831083030 | 60 | 83 | 14.0 | 20.0 | 0.00 | 0.06 | 0.02 | 86 | 1014.7 |
| 20260831081529 | 60 | 94 | 15.0 | 25.0 | 0.00 | 0.06 | 0.02 | 87 | 1014.6 |
| 20260831080046 | 59 | 75 | 10.0 | 21.0 | 0.00 | 0.06 | 0.02 | 89 | 1014.4 |
| 20260831074526 | 59 | 79 | 15.0 | 26.0 | 0.00 | 0.06 | 0.02 | 91 | 1014.5 |
| 20260831073031 | 59 | 105 | 12.0 | 23.0 | 0.00 | 0.06 | 0.02 | 92 | 1014.4 |
| 20260831071525 | 58 | 60 | 14.0 | 23.0 | 0.00 | 0.06 | 0.02 | 93 | 1014.4 |
| 20260831070026 | 58 | 62 | 13.0 | 18.0 | 0.00 | 0.06 | 0.02 | 93 | 1014.3 |
| 20260831064522 | 58 | 79 | 8.0 | 20.0 | 0.00 | 0.06 | 0.02 | 93 | 1014.0 |
| 20260831063022 | 58 | 79 | 11.0 | 21.0 | 0.00 | 0.06 | 0.02 | 92 | 1014.1 |
| 20260831061521 | 58 | 71 | 12.0 | 21.0 | 0.00 | 0.06 | 0.02 | 92 | 1013.9 |
| 20260831060022 | 58 | 87 | 10.0 | 20.0 | 0.00 | 0.06 | 0.02 | 92 | 1014.0 |
| 20260831054524 | 58 | 74 | 13.0 | 22.0 | 0.00 | 0.06 | 0.02 | 92 | 1013.9 |
| 20260831053022 | 58 | 80 | 11.0 | 21.0 | 0.00 | 0.06 | 0.02 | 92 | 1014.1 |
| 20260831051518 | 58 | 41 | 11.0 | 21.0 | 0.00 | 0.06 | 0.02 | 92 | 1013.9 |
| 20260831050018 | 58 | 81 | 9.0 | 18.0 | 0.00 | 0.06 | 0.02 | 92 | 1013.7 |
| 20260831044516 | 58 | 51 | 11.0 | 18.0 | 0.00 | 0.06 | 0.02 | 92 | 1013.7 |
| 20260831043013 | 58 | 29 | 7.0 | 17.0 | 0.00 | 0.06 | 0.02 | 92 | 1013.6 |
| 20260831041512 | 58 | 37 | 9.0 | 18.0 | 0.00 | 0.06 | 0.02 | 92 | 1013.4 |
| 20260831040010 | 58 | 79 | 12.0 | 18.0 | 0.00 | 0.06 | 0.02 | 93 | 1013.6 |
| 20260831034508 | 58 | 70 | 10.0 | 16.0 | 0.00 | 0.06 | 0.02 | 93 | 1013.7 |
| 20260831033008 | 59 | 87 | 11.0 | 21.0 | 0.00 | 0.06 | 0.02 | 93 | 1013.7 |
| 20260831031505 | 59 | 105 | 10.0 | 16.0 | 0.00 | 0.06 | 0.02 | 93 | 1013.6 |
| 20260831030003 | 59 | 40 | 10.0 | 21.0 | 0.00 | 0.06 | 0.02 | 93 | 1013.6 |
| 20260831024502 | 59 | 83 | 11.0 | 18.0 | 0.00 | 0.06 | 0.02 | 93 | 1013.6 |
| 20260831023059 | 59 | 70 | 9.0 | 18.0 | 0.00 | 0.06 | 0.02 | 93 | 1013.6 |
| 20260831021558 | 59 | 82 | 11.0 | 19.0 | 0.00 | 0.06 | 0.02 | 93 | 1013.5 |
| 20260831020056 | 60 | 65 | 11.0 | 19.0 | 0.00 | 0.06 | 0.02 | 94 | 1013.5 |
| 20260831014554 | 60 | 74 | 10.0 | 16.0 | 0.00 | 0.06 | 0.02 | 94 | 1013.4 |
| 20260831013053 | 60 | 89 | 12.0 | 22.0 | 0.00 | 0.06 | 0.02 | 93 | 1013.3 |
| 20260831011555 | 60 | 65 | 11.0 | 21.0 | 0.00 | 0.06 | 0.02 | 93 | 1013.4 |
| 20260831010055 | 60 | 79 | 11.0 | 21.0 | 0.00 | 0.06 | 0.02 | 93 | 1013.4 |
| 20260831004548 | 60 | 73 | 12.0 | 21.0 | 0.00 | 0.06 | 0.02 | 93 | 1013.3 |
| 20260831003049 | 60 | 76 | 11.0 | 18.0 | 0.00 | 0.06 | 0.02 | 93 | 1013.2 |
| 20260831001543 | 60 | 41 | 10.0 | 20.0 | 0.01 | 0.06 | 0.02 | 93 | 1013.3 |
| 20260831000055 | 60 | 77 | 11.0 | 19.0 | 0.01 | 0.06 | 0.02 | 93 | 1013.2 |
| 20260830234545 | 61 | 93 | 10.0 | 19.0 | 0.01 | 0.06 | 0.02 | 93 | 1013.0 |
| 20260830233037 | 61 | 71 | 10.0 | 22.0 | 0.01 | 0.06 | 0.02 | 93 | 1012.8 |
| 20260830231533 | 61 | 98 | 10.0 | 19.0 | 0.01 | 0.05 | 0.02 | 93 | 1012.7 |
| 20260830230033 | 61 | 27 | 10.0 | 14.0 | 0.02 | 0.05 | 0.02 | 93 | 1012.7 |
| 20260830224530 | 61 | 36 | 9.0 | 20.0 | 0.04 | 0.05 | 0.02 | 93 | 1012.9 |
| 20260830223028 | 61 | 62 | 9.0 | 15.0 | 0.05 | 0.05 | 0.02 | 92 | 1013.1 |
| 20260830221530 | 61 | 54 | 8.0 | 16.0 | 0.04 | 0.04 | 0.01 | 92 | 1012.8 |
| 20260830220022 | 61 | 56 | 7.0 | 17.0 | 0.03 | 0.03 | 0.03 | 91 | 1013.1 |
| 20260830214521 | 61 | 46 | 7.0 | 15.0 | 0.01 | 0.01 | 0.01 | 90 | 1013.3 |
| 20260830213024 | 61 | 42 | 8.0 | 13.0 | 0.00 | 0.00 | 0.00 | 89 | 1013.3 |
| 20260830211522 | 62 | 15 | 10.0 | 15.0 | 0.00 | 0.00 | 0.00 | 86 | 1013.0 |
| 20260830210019 | 63 | 9 | 9.0 | 12.0 | 0.00 | 0.00 | 0.00 | 83 | 1013.2 |
| 20260830204532 | 64 | 17 | 7.0 | 10.0 | 0.00 | 0.00 | 0.00 | 79 | 1013.0 |
| 20260830203018 | 64 | 13 | 6.0 | 10.0 | 0.00 | 0.00 | 0.00 | 78 | 1012.7 |
| 20260830201518 | 64 | 27 | 4.0 | 7.0 | 0.00 | 0.00 | 0.00 | 78 | 1012.6 |
| 20260830200019 | 63 | 27 | 3.0 | 5.0 | 0.00 | 0.00 | 0.00 | 80 | 1012.9 |
| 20260830194516 | 64 | 28 | 3.0 | 5.0 | 0.00 | 0.00 | 0.00 | 79 | 1012.7 |
| 20260830193015 | 64 | 35 | 2.0 | 4.0 | 0.00 | 0.00 | 0.00 | 78 | 1013.0 |
| 20260830191515 | 65 | 38 | 2.0 | 4.0 | 0.00 | 0.00 | 0.00 | 76 | 1012.9 |
| 20260830190014 | 65 | 38 | 2.0 | 4.0 | 0.00 | 0.00 | 0.00 | 76 | 1013.0 |
| 20260830184519 | 66 | 40 | 2.0 | 4.0 | 0.00 | 0.00 | 0.00 | 75 | 1012.9 |
| 20260830183013 | 67 | 40 | 3.0 | 5.0 | 0.00 | 0.00 | 0.00 | 73 | 1012.9 |
| 20260830181513 | 67 | 67 | 2.0 | 4.0 | 0.00 | 0.00 | 0.00 | 72 | 1012.9 |
| 20260830180016 | 68 | 41 | 4.0 | 8.0 | 0.00 | 0.00 | 0.00 | 70 | 1013.0 |
| 20260830174511 | 68 | 85 | 4.0 | 7.0 | 0.00 | 0.00 | 0.00 | 69 | 1013.1 |
| 20260830173010 | 69 | 49 | 4.0 | 10.0 | 0.00 | 0.00 | 0.00 | 68 | 1013.2 |
| 20260830171510 | 69 | 56 | 5.0 | 13.0 | 0.00 | 0.00 | 0.00 | 68 | 1013.3 |
| 20260830170009 | 69 | 71 | 6.0 | 13.0 | 0.00 | 0.00 | 0.00 | 66 | 1013.3 |
| 20260830164533 | 69 | 80 | 8.0 | 16.0 | 0.00 | 0.00 | 0.00 | 66 | 1013.4 |
| 20260830163009 | 70 | 91 | 11.0 | 18.0 | 0.00 | 0.00 | 0.00 | 63 | 1013.6 |
| 20260830161508 | 70 | 91 | 8.0 | 14.0 | 0.00 | 0.00 | 0.00 | 63 | 1013.5 |
| 20260830160008 | 70 | 85 | 7.0 | 17.0 | 0.00 | 0.00 | 0.00 | 63 | 1013.6 |
| 20260830154509 | 70 | 65 | 9.0 | 16.0 | 0.00 | 0.00 | 0.00 | 65 | 1013.7 |
| 20260830153013 | 70 | 73 | 9.0 | 16.0 | 0.00 | 0.00 | 0.00 | 64 | 1013.7 |
| 20260830151506 | 70 | 100 | 11.0 | 18.0 | 0.00 | 0.00 | 0.00 | 64 | 1013.8 |
| 20260830150004 | 70 | 48 | 9.0 | 12.0 | 0.00 | 0.00 | 0.00 | 65 | 1014.0 |
| 20260830144507 | 71 | 75 | 10.0 | 17.0 | 0.00 | 0.00 | 0.00 | 64 | 1014.0 |
| 20260830143003 | 71 | 71 | 8.0 | 19.0 | 0.00 | 0.00 | 0.00 | 63 | 1014.1 |